Location: Newark
(40.3500°N, 15.2333°E)
Time: 10:31:05
(UTC+00:00)

Vanguard 1 - Pass Details

Date: 01 February 2020
Orbit: 650 x 3833 km, 34.2° (Epoch: 19 February)

Event Time Altitude Azimuth Distance (km) Brightness Sun altitude
Rises 12:57:14 0° 232° (SW) 4,513 14.5 27.6°
Reaches altitude 10° 13:01:14 10° 222° (SW) 3,063 14.2 27.2°
Maximum altitude 13:06:56 28° 166° (SSE) 1,558 12.0 26.6°
Drops below altitude 10° 13:11:04 10° 107° (ESE) 2,178 11.8 26.2°
Sets 13:13:24 0° 94° (E) 2,993 12.3 26.0°
